Regional Weather Roundup
Issued by NWS Memphis, TN

Home | Current Version | Previous Version | Text Only | Print | Product List | Glossary On
Versions: 1 2 3 4 5 6 7 8 9 10 11 12 13 14 15 16 17 18 19 20 21 22 23 24 25 26 27 28 29 30 31 32 33 34 35 36 37 38 39 40 41 42 43 44 45 46 47 48 49 50
000
ASUS44 KMEG 061610
RWRMEG
MEMPHIS CWA HOURLY WEATHER ROUNDUP
NATIONAL WEATHER SERVICE MEMPHIS TN
1000 AM CST FRI MAR 06 2015

...WEST TENNESSEE...

CITY           SKY/WX    TMP DP  RH WIND       PRES   REMARKS
MEMPHIS INTL   SUNNY     27  11  51 CALM      30.63S
NWS MEMPHIS      N/A     25 N/A N/A MISG        N/A
JACKSON        SUNNY     22   8  55 N5        30.62F WCI  16
LEXINGTON      SUNNY     25  10  54 SW3       30.59F
SAVANNAH       SUNNY     27  12  54 N6        30.60S WCI  20
DYERSBURG      SUNNY     21   0  39 CALM      30.65S
UNION CITY     SUNNY     18   9  68 CALM      30.62F
PARIS          SUNNY     21   7  53 CALM      30.60S


...EASTERN ARKANSAS...

CITY           SKY/WX    TMP DP  RH WIND       PRES   REMARKS
JONESBORO      SUNNY     19  10  68 S9        30.63F WCI   8
WEST MEMPHIS   SUNNY     24  15  68 NW5       30.64S WCI  18
BATESVILLE     SUNNY     28  12  50 SE8       30.60F WCI  20
NEWPORT        SUNNY     24  15  68 S7        30.65F WCI  16
WALNUT RIDGE   SUNNY     19  16  86 S10       30.63S WCI   8
BLYTHEVILLE    SUNNY     21  14  74 CALM      30.65S
SEARCY         SUNNY     32  16  51 S6        30.65F WCI  26
STUTTGART      SUNNY     28  16  59 CALM      30.66F
PINE BLUFF     SUNNY     29  13  51 SE3       30.65S
MONTICELLO     SUNNY     31  17  56 E3        30.63S


...NORTH MISSISSIPPI...

CITY           SKY/WX    TMP DP  RH WIND       PRES   REMARKS
TUPELO         SUNNY     28  13  53 NE6       30.60S WCI  22
OXFORD         SUNNY     27   9  46 NE8       30.62S WCI  18
OLIVE BRANCH   SUNNY     25  12  58 CALM      30.63S
TUNICA         SUNNY     27  14  59 CALM      30.66S
CLARKSDALE     SUNNY     27  14  59 MISG      30.66R
CORINTH        SUNNY     28  14  54 NE6       30.60S WCI  22
GREENWOOD      SUNNY     33  14  45 N8        30.62S WCI  26
COLUMBUS       SUNNY     30  16  56 N6        30.58S WCI  24
STARKVILLE     FAIR      30  18  59 N7        30.59S WCI  23
GOLDEN TRIANGL SUNNY     30  19  64 N7        30.57S WCI  23


...SOUTHEAST MISSOURI...

CITY           SKY/WX    TMP DP  RH WIND       PRES   REMARKS
WEST PLAINS    SUNNY     25  11  55 S6        30.51S WCI  18
POPLAR BLUFF   SUNNY     20   9  62 S10       30.60F WCI   9
CAPE GIRARDEAU FLURRIES  16   9  74 SW3       30.61F


...NORTHWEST ALABAMA...

CITY           SKY/WX    TMP DP  RH WIND       PRES   REMARKS
MUSCLE SHOALS  SUNNY     28  14  55 VRB3      30.58S


...MIDDLE TENNESSEE...

CITY           SKY/WX    TMP DP  RH WIND       PRES   REMARKS
NASHVILLE      SUNNY     25  15  66 CALM      30.59S
CLARKSVILLE    SUNNY     18   8  65 CALM      30.60F
COLUMBIA         N/A     23  19  86 NE5       30.55F WCI  17


...WESTERN KENTUCKY...

CITY           SKY/WX    TMP DP  RH WIND       PRES   REMARKS
PADUCAH        SUNNY     21   9  59 W3        30.61F
FORT CAMPBELL  SUNNY     14   6  69 NE3       30.60S


...CENTRAL ARKANSAS...

CITY           SKY/WX    TMP DP  RH WIND       PRES   REMARKS
LITTLE ROCK    SUNNY     30  15  53 SE6       30.64F WCI  24


SKY/WX REPORTED AS FAIR MEANS FEW OR NO CLOUDS BELOW
12 THOUSAND FEET.




USA.gov is the U.S. government's official web portal to all federal, state and local government web resources and services.